Weather Roundup
Issued by NWS Springfield, MO

Home | Current Version | Previous Version | Text Only | Print | Product List | Glossary On
Versions: 1 2 3 4 5 6 7 8 9 10 11 12 13 14 15 16 17 18 19 20 21 22 23 24 25 26 27 28 29 30 31 32 33 34 35 36 37 38 39 40 41 42 43 44 45 46 47 48 49 50
000
NZUS99 KSGF 270607
HRRSGF

HOURLY WEATHER
NATIONAL WEATHER SERVICE SPRINGFIELD MO
100 AM CDT SAT AUG 27 2016

......SGF CWA......

CITY           SKY/WX    TMP DP  RH WIND       PRES   REMARKS
SPRINGFIELD    CLOUDY    74  70  87 SE7       30.04F
6HR MIN TEMP:  73; 6HR MAX TEMP:  79;

JOPLIN         PTCLDY    69  68  96 SE3       30.04F
6HR MIN TEMP:  69; 6HR MAX TEMP:  78;

WEST PLAINS    CLEAR     71  67  87 S3        30.08S
6HR MIN TEMP:  71; 6HR MAX TEMP:  83;

ROLLA          CLOUDY    73  71  93 SW7       30.06R
6HR MIN TEMP:  71; 6HR MAX TEMP:  77; 6HR PCP:  0.18;

OSAGE BEACH    MOCLDY    72  70  93 CALM      30.06R
BRANSON        CLOUDY    72  72 100 CALM      30.07S

......SURROUNDING SGF CWA......

CITY           SKY/WX    TMP DP  RH WIND       PRES   REMARKS
CHANUTE        CLOUDY    71  69  93 SE3       30.02F
PARSONS        MOCLDY    73  70  90 S3        30.03F
EMPORIA        PTCLDY    70  69  97 S6        30.02F
GROVE OK       CLOUDY    70  68  94 CALM      30.04F
ROGERS AR      CLOUDY    71  70  96 CALM      30.07F
SILOAM SPRINGS CLOUDY    70  63  78 SE3       30.07F
HARRISON AR    PTCLDY    73  71  93 CALM      30.07S
NEAR YELLVILLE PTCLDY    72  66  83 SW3       30.02S

......KANSAS AND MISSOURI......

CITY           SKY/WX    TMP DP  RH WIND       PRES   REMARKS
KANSAS CTY INT CLOUDY    70  67  90 S12       30.04S
DOWNTOWN KC    LGT RAIN  70  66  87 SW3       30.03S
COLUMBIA       LGT RAIN  74  72  93 N6        30.06R
SEDALIA        PTCLDY    72  70  93 NW5       30.06R FOG
ST JOSEPH      CLOUDY    69  68  96 S5        30.03R FOG
ST LOUIS       NOT AVBL
SPIRIT OF STL  CLOUDY    78  74  87 CALM      30.03R
KIRKSVILLE     LGT RAIN  70  67  90 SW7       30.06F FOG
WICHITA        PTCLDY    72  69  90 S7        30.01F
TOPEKA         PTCLDY    70  68  93 CALM      30.03F
OLATHE         PTCLDY   N/A N/A N/A E6        30.05F

......TENNESSEE......

CITY           SKY/WX    TMP DP  RH WIND       PRES   REMARKS
MEMPHIS        CLOUDY    75  71  87 E3        30.04F
NASHVILLE      CLOUDY    76  70  82 N5        30.09F

......ARKANSAS.......

CITY           SKY/WX    TMP DP  RH WIND       PRES   REMARKS
FAYETTEVILLE   CLOUDY    69  69 100 CALM      30.06S
FT SMITH       CLOUDY    76  71  85 CALM      30.01F
LITTLE ROCK    MOCLDY    78  73  84 CALM      30.01F

......OKLAHOMA.......

CITY           SKY/WX    TMP DP  RH WIND       PRES   REMARKS
TULSA          CLOUDY    77  73  87 S8        30.00S
PONCA CITY     CLEAR     74  67  78 S6        30.01S
MCALESTER      CLOUDY    72  68  87 CALM      30.03R
OKLAHOMA CITY  MOCLDY    71  68  90 S8        30.03S

......IOWA............

CITY           SKY/WX    TMP DP  RH WIND       PRES   REMARKS
DES MOINES     CLOUDY    65  62  90 E10       30.02F
QUAD CITIES    FAIR      68  66  93 E6        30.04F

......ILLINOIS........

CITY           SKY/WX    TMP DP  RH WIND       PRES   REMARKS
QUINCY         CLOUDY    70  70 100 E6        30.04F
CHICAGO        CLOUDY    69  65  86 NE7       30.11F




USA.gov is the U.S. government's official web portal to all federal, state and local government web resources and services.